Location: Bathurst
(33.4193°S, 149.5775°E)
Time: 20:11:29
(UTC+10:00)

N. Korean satellite - Visible Passes

Search period start: 02 July 2020 00:00
Search period end: 12 July 2020 00:00
Orbit: 454 x 505 km, 97.2° (Epoch: 01 July)

Date Brightness Start Highest point End Pass type
(mag) Time Alt. Az. Time Alt. Az. Time Alt. Az.
02 Jul 8.8 05:37:25 10° NNW 05:37:49 12° NNW 05:37:49 12° NNW visible
02 Jul 9.7 18:41:37 10° SW 18:43:14 13° WSW 18:44:52 10° W visible
03 Jul 8.8 05:10:57 10° N 05:11:45 16° N 05:11:45 16° N visible
03 Jul 8.8 18:14:31 10° SSW 18:17:39 26° WSW 18:20:47 10° NW visible
04 Jul 9.3 04:45:12 10° NNE 04:45:40 13° NNE 04:45:40 13° NNE visible
04 Jul 7.2 17:48:17 10° S 17:51:58 60° WSW 17:55:38 10° NNW visible
06 Jul 8.8 05:27:10 10° NNW 05:27:47 14° NNW 05:27:47 14° NNW visible
06 Jul 9.5 18:31:03 10° SSW 18:33:28 17° WSW 18:35:53 10° WNW visible
07 Jul 8.9 05:00:59 10° N 05:01:43 16° N 05:01:43 16° N visible
07 Jul 8.3 18:04:25 10° S 18:07:50 35° WSW 18:11:15 10° NW visible
08 Jul 9.6 04:35:28 10° NE 04:35:39 11° NE 04:35:39 11° NE visible
08 Jul 6.7 17:38:22 10° S 17:42:07 84° WSW 17:45:51 10° NNW visible
09 Jul 8.9 05:43:41 10° NW 05:43:51 11° NW 05:43:51 11° NW visible
09 Jul 9.9 18:48:31 10° WSW 18:49:14 10° WSW 18:49:57 10° W visible
10 Jul 8.7 05:17:01 10° N 05:17:47 16° NNW 05:17:47 16° NNW visible
10 Jul 9.2 18:20:44 10° SSW 18:23:40 22° WSW 18:26:34 10° WNW visible
11 Jul 9.1 04:51:05 10° NNE 04:51:42 15° NNE 04:51:42 15° NNE visible
11 Jul 7.7 17:54:22 10° S 17:58:00 48° WSW 18:01:36 10° NNW visible
